Miscellaneous Local Product
Issued by NWS Hastings, NE

Home | Current Version | Previous Version | Graphics & Text | Print | Product List | Glossary On
Versions: 1 2 3 4 5 6 7 8 9 10 11 12 13 14 15 16 17 18 19 20 21 22 23 24 25 26 27 28 29 30 31 32 33 34 35 36 37 38 39 40 41 42 43 44 45 46 47 48 49 50
000
AXUS43 KGID 240602
MISGRI

GID CWA HOURLY WEATHER ROUNDUP
NATIONAL WEATHER SERVICE HASTINGS NE
100 AM CDT WED MAY 24 2017

NOTE: "FAIR" INDICATES FEW OR NO CLOUDS BELOW 12,000 FEET WITH NO
SIGNIFICANT WEATHER AND/OR OBSTRUCTIONS TO VISIBILITY.

...SOUTH CENTRAL NEBRASKA...

CITY           SKY/WX    TMP DP  RH WIND       PRES   REMARKS
GRAND ISLAND   CLOUDY    50  44  80 N15       29.91F
HASTINGS       CLOUDY    50  42  74 N14       29.92F
KEARNEY        MOCLDY    48  39  71 N8        29.94S
ORD            CLOUDY    49  41  74 NW9       29.92F
YORK           CLOUDY    48  45  87 NW12      29.89F
AURORA         PTCLDY    49  44  83 N14       29.90S
LEXINGTON      MOCLDY    41  38  87 NW5       29.96F
HOLDREGE       MOCLDY    45  40  82 NW7       29.94F
HEBRON         PTCLDY    49  45  83 NW7       29.88F

...NEBRASKA PANHANDLE...

CITY           SKY/WX    TMP DP  RH WIND       PRES   REMARKS
CHADRON        CLOUDY    43  36  76 S3        29.98F
ALLIANCE       CLOUDY    34  31  88 SE3       30.00F
SCOTTSBLUFF    CLOUDY    44  37  76 SE3       30.00F
SIDNEY         CLOUDY    35  32  88 CALM      30.02F

...WESTERN AND NORTH CENTRAL NEBRASKA...

CITY           SKY/WX    TMP DP  RH WIND       PRES   REMARKS
VALENTINE      CLEAR     40  34  79 NW7       29.96F
AINSWORTH      CLEAR     45  40  84 CALM      29.95F
ONEILL         PTCLDY    45  41  87 NW6       29.93F
BROKEN BOW     CLOUDY    49  41  74 NW8       29.94F
IMPERIAL       CLEAR     42  35  76 N7        30.01S
NORTH PLATTE   CLEAR     39  37  92 NW8       29.99F WCI  33
MCCOOK         CLEAR     43  37  79 N9        29.98F

...EASTERN NEBRASKA...

CITY           SKY/WX    TMP DP  RH WIND       PRES   REMARKS
NORFOLK        MOCLDY    48  43  82 N14       29.87F
SO SIOUX CITY  CLEAR     47  47 100 NW8       29.84F
TEKAMAH        CLOUDY    51  47  86 NW12      29.82F
ALBION         CLOUDY    51  43  75 N9        29.90F
OMAHA EPPLEY   MOCLDY    51  46  83 NW13      29.81F
OFFUTT AFB     MOCLDY    50  47  89 NW9       29.80F
MILLARD        PTCLDY    53  48  83 NW8       29.82F
LINCOLN        MOCLDY    52  46  80 NW14      29.85F
NEBRASKA CITY  CLEAR     51  46  84 NW12      29.80F
BEATRICE       CLOUDY    52  46  80 N14G23    29.84F
FALLS CITY     CLOUDY    51  47  86 NW8       29.79F

...NORTHERN KANSAS...

CITY           SKY/WX    TMP DP  RH WIND       PRES   REMARKS
GOODLAND       CLEAR     38  35  89 W7        30.01F WCI  33
HILL CITY      CLEAR     44  39  82 N8        29.97S
NORTON         CLEAR     41  36  81 NW7       29.96S
PHILLIPSBURG   MOCLDY    45  45 100 W7        29.95F
SMITH CENTER   CLEAR     41  37  87 NW7       29.93F
HAYS           PTCLDY    43  40  89 NW7       29.95F
RUSSELL        CLOUDY    49  43  80 NW9       29.91F
CONCORDIA      CLEAR     49  44  83 NW12      29.88F
SALINA         PTCLDY    51  45  79 NW9       29.88F
TOPEKA         PTCLDY    51  48  89 NW6       29.81F



USA.gov is the U.S. government's official web portal to all federal, state and local government web resources and services.